User: anonymous   Login
Location: Cerroniocc
(13.7547°S, 72.0222°W)
Time: 09:35:32
(UTC+00:00)
Language:

SL-24 R/B - Orbit

View from above orbital plane
View from above orbital plane
View from above satellite
View from above satellite

Ground track
Ground track

The orbit data is extracted from the following two-line orbital elements,

1 31699U 07026B   20270.77118648  .00000040  00000-0  14030-4 0  9992
2 31699  97.4383 101.3690 0349231 355.1944  14.3901 14.41381160698243
Epoch (UTC): 26 September 2020 18:30:30
Eccentricity: 0.0349231
inclination: 97.4383°
perigee height: 505 km
apogee height: 1003 km
right ascension of ascending node: 101.3690°
argument of perigee: 355.1944°
revolutions per day: 14.41381160
mean anomaly at epoch: 14.3901°
orbit number at epoch: 69824

The dashed part of the orbit path shows where the satellite is in the earth's shadow,  

DLR